Location: Davidschlag
(48.4333°N, 14.2833°E)
Time: 07:26:13
(UTC+00:00)

STARLINK-1064 - Pass Details

Date: 27 February 2020
Orbit: 548 x 551 km, 53.0° (Epoch: 31 March)

Event Time Altitude Azimuth Distance (km) Brightness Sun altitude
Rises 18:10:10 0° 237° (WSW) 2,708 8.0 -15.3°
Reaches altitude 10° 18:12:23 10° 236° (SW) 1,818 7.0 -15.6°
Maximum altitude 18:16:31 77° 150° (SSE) 569 3.5 -16.3°
Enters shadow 18:18:24 31° 70° (ENE) 976 4.4 -16.6°
